sat.trackr.live / text

‹ back to catalog

STARLINK-34014

NORAD 63942 · 2025-098S

PAYLOAD ACTIVE UNKNOWN

§ Identity

Operator
Country
US
Launch date
2025-05-13
Launch site
AFWTR
Launch vehicle
Mass (kg)
RCS (m²)

Purposes: comms

External: N2YO · Heavens-Above · Gunter

§ Orbital elements

Epoch: 2026-09-20T08:44:57.528672Z

Period
94.14 min
Inclination
70.0007°
Eccentricity
0.0004411
Mean motion
15.29593823 rev/d
Perigee alt
474.0 km
Apogee alt
480.0 km
Semi-major
6,855.2 km
B*
5.5791e-4
RAAN
141.1892°
Arg perigee
263.4174°
Mean anomaly
96.6499°
Rev number
7,576

§ Raw data

STARLINK-340141 63942U 25098S   26263.36455473  .00015953  00000+0  55791-3 0  99962 63942  70.0007 141.1892 0004411 263.4174  96.6499 15.29593823 75768

JSON: /api/v1/satellites/63942 · /tle

For live sub-satellite position, see the globe view (requires WebGL).

§ Visibility from observer

Set your observer location to see the next 7 days of passes ≥ 10°. The values pass through the URL so the page stays shareable.

No JS? Fill the form by hand. The geolocation button needs JavaScript.